Temperature
18 17 17 17 17 17 17 17 17 17 17 17 17 17 17 17 17 17 17 17 17 17 16 16 17 17 17 17 17 17 17 17 17 17 17 17 17 17 17 17 16 16 16
18 17 17 17 17 17 17 17 17 17 17 17 17 17 17 17 17 17 17 17 16 16 16 16 16 16 16 16 16 16 16 16 16 16 16 16 16 16 16 16 16 16 16
18 17 17 17 17 17 17 17 17 17 17 17 17 17 17 17 17 17 16 16 16 16 16 16 16 16 16 16 16 16 16 16 16 16 16 16 16 16 16 16 15 15 15
18 17 17 17 17 17 17 17 17 17 17 17 17 17 16 16 16 16 16 16 16 16 16 16 15 15 15 15 15 15 15 15 15 15 15 15 15 15 15 15 15 15 15
18 17 17 17 17 17 17 17 17 17 17 16 16 16 16 16 16 16 16 15 15 15 15 15 15 15 15 15 15 15 15 15 15 15 15 15 15 14 14 14 14 14 14
17 17 17 17 17 17 16 16 16 16 16 16 16 16 16 16 16 16 15 15 15 15 15 15 15 15 15 15 14 14 14 14 14 14 14 14 14 13 14 14 13 13 13
17 17 17 16 16 16 16 16 16 16 16 16 16 16 15 15 15 15 15 15 15 15 14 14 14 14 14 14 14 14 14 14 13 13 13 13 13 13 13 13 13 12 12
17 17 16 16 16 16 16 16 15 15 15 15 15 15 15 15 15 15 15 14 14 14 14 14 14 14 14 14 14 13 13 13 13 13 12 12 12 12 12 12 12 12 11
17 17 16 16 16 16 15 15 15 15 15 15 14 14 14 14 14 14 14 14 14 14 13 13 13 13 13 13 13 13 13 12 12 12 11 11 11 11 11 11 11 11 10
16 16 16 16 16 15 15 15 15 14 14 14 14 14 14 14 14 14 13 13 13 13 13 12 12 12 12 12 12 12 12 11 11 11 11 10 10 10 10 10 10 10 10
16 16 15 15 15 15 15 15 14 14 14 14 14 13 13 13 13 13 13 13 12 12 12 12 12 11 11 11 11 11 11 11 10 10 10 10 9 9 9 9 9 9 9
15 15 15 15 14 14 14 14 14 14 13 13 13 13 13 12 12 12 12 12 12 12 11 11 11 11 10 10 10 10 10 10 9 9 9 9 8 8 8 8 8 8 8
14 14 14 14 14 14 13 13 13 13 13 13 12 12 12 12 11 11 11 11 11 11 10 10 10 10 10 9 9 9 9 9 8 8 8 8 7 7 7 7 7 7 7
14 14 13 13 13 13 13 13 12 12 12 12 12 12 11 11 10 10 10 10 10 10 9 9 9 9 8 8 8 8 8 8 7 7 7 7 7 7 7 6 6 6 6
13 13 13 12 12 12 12 12 12 12 11 11 11 11 11 10 10 10 10 9 9 9 9 8 8 8 8 7 7 7 7 7 7 7 6 6 6 6 6 6 5 5 5
13 12 12 12 11 11 11 11 11 11 10 10 10 10 10 9 9 9 9 9 8 8 8 8 8 7 7 7 7 6 6 6 6 6 6 6 5 5 5 5 5 5 5
12 12 11 11 11 11 11 11 10 9 9 9 9 9 9 9 8 8 8 8 8 8 8 7 7 7 6 6 6 6 6 5 5 5 5 5 5 5 4 4 4 4 4
11 11 11 11 10 10 10 10 10 9 9 8 8 8 8 8 8 8 8 7 7 7 7 6 6 6 6 6 5 5 5 5 5 5 4 4 4 4 4 4 4 3 3
11 11 10 10 10 9 9 9 9 8 8 8 7 7 7 7 7 7 7 7 7 6 6 6 6 5 5 5 5 5 5 5 4 4 4 4 4 3 3 3 3 3 3
10 10 10 9 9 9 9 8 8 8 8 7 7 7 7 7 7 6 6 6 6 6 6 5 5 5 5 5 5 4 4 4 4 4 3 3 3 3 3 3 3 3 3
10 9 9 9 9 9 8 8 8 7 7 7 6 6 6 6 6 6 6 6 6 5 5 5 5 5 5 4 4 4 4 4 3 3 3 3 3 3 3 2 2 2 2
9 9 9 9 9 8 8 8 7 7 7 7 6 6 6 6 6 6 6 5 5 5 5 5 5 4 4 4 4 4 4 3 3 3 3 3 2 2 2 2 2 2 2
9 9 9 8 8 8 8 7 7 7 7 7 6 6 6 6 6 6 5 5 5 5 4 4 4 4 4 4 4 3 3 3 3 3 2 2 2 2 2 2 2 2 2
9 9 8 8 8 8 8 7 7 7 7 7 6 6 6 6 6 5 5 5 5 4 4 4 4 4 4 3 3 3 3 3 3 2 2 2 2 2 2 2 2 2 2
9 9 9 8 8 8 8 7 7 7 7 7 6 6 6 6 5 5 5 5 5 4 4 4 4 4 3 3 3 3 3 3 3 2 2 2 2 2 2 2 2 1 2
9 9 8 8 8 8 8 7 7 7 7 7 6 6 6 6 5 5 5 5 5 4 4 4 4 3 3 3 3 3 3 3 2 2 2 2 2 2 2 2 1 1 1
Wind_Speed
6 5 5 5 5 5 5 6 6 5 5 5 6 6 6 6 6 5 6 5 5 4 3 4 4 3 2 1 1 2 2 3 3 3 2 2 1 1 2 6 7 7 8
6 5 5 4 4 5 5 5 5 5 5 5 5 5 5 5 5 6 6 6 6 5 5 4 4 3 3 2 2 1 2 2 3 3 2 1 1 1 1 2 2 4 6
5 5 4 4 4 4 4 4 4 4 4 4 4 4 4 4 4 5 6 6 5 5 5 4 4 3 3 2 2 2 2 2 2 3 2 1 1 1 1 1 1 1 1
5 5 4 4 4 4 4 4 4 4 4 4 4 3 3 3 3 4 5 5 4 4 3 4 3 3 4 3 2 2 2 1 1 2 1 1 0 1 2 1 1 1 1
6 5 4 4 3 3 3 3 3 3 4 3 3 2 2 2 3 4 4 4 4 3 2 2 2 3 3 3 2 2 2 2 1 1 1 1 1 1 0 0 1 1 1
6 5 4 4 3 3 3 4 4 4 3 3 3 3 2 1 2 4 5 4 4 3 3 2 2 2 2 3 3 4 4 3 3 2 1 1 0 0 0 0 1 1 1
5 5 4 4 4 4 4 4 4 4 4 4 3 3 3 2 3 5 6 4 4 2 2 2 1 1 2 2 3 4 4 4 3 3 2 2 1 1 1 1 1 1 0
5 5 4 5 4 4 4 4 4 4 4 3 3 4 4 3 4 6 8 6 5 4 3 3 3 2 2 3 4 4 4 4 3 2 3 2 1 1 1 1 1 2 1
5 4 4 5 5 5 4 4 4 5 5 4 4 4 4 3 4 6 7 5 5 5 4 4 4 3 4 6 7 7 6 4 8 10 10 9 9 8 5 3 3 3 2
4 4 4 4 5 5 5 4 4 5 6 5 5 5 5 4 5 6 7 5 6 5 5 5 7 6 6 7 6 6 6 3 5 6 7 8 8 9 10 6 3 3 2
5 6 6 5 5 5 5 5 6 6 7 7 7 6 6 6 6 8 7 5 6 5 4 4 4 9 10 10 8 6 6 5 5 6 5 5 6 6 7 8 6 3 3
7 7 7 6 6 6 7 6 6 7 8 7 8 7 6 6 7 8 10 9 8 7 5 4 5 10 12 12 9 10 11 8 6 6 6 5 5 4 4 7 10 9 6
8 8 7 8 7 6 6 6 6 6 6 6 6 6 5 5 7 11 11 11 11 7 6 8 10 11 11 10 12 12 9 7 7 7 6 4 3 4 5 6 8 9 10
9 8 7 8 8 8 7 6 6 5 6 6 6 6 6 5 5 5 6 7 10 9 7 9 13 14 11 10 9 8 6 6 6 5 4 3 4 5 5 4 4 4 5
9 9 8 8 9 9 9 8 6 5 4 7 5 6 6 5 4 6 6 6 5 6 7 7 7 7 7 7 6 7 6 6 6 5 5 5 5 5 4 4 4 4 4
8 8 7 7 8 8 9 10 15 13 15 13 11 9 7 8 10 12 12 12 11 11 9 7 6 6 6 6 6 6 6 6 5 5 5 5 4 4 4 4 3 3 3
9 8 7 8 7 7 7 9 9 11 16 16 14 14 13 12 13 13 14 14 13 12 9 7 6 6 5 5 5 5 4 4 4 5 5 5 4 4 4 4 3 3 3
9 9 9 7 7 7 7 7 8 9 8 7 9 13 14 14 14 14 14 13 10 8 6 6 5 5 5 5 5 5 5 5 5 5 5 5 4 4 4 3 3 3 3
8 7 8 8 7 8 7 7 7 8 8 6 5 7 10 11 13 13 11 9 7 6 6 5 5 5 5 5 5 5 5 5 5 5 5 5 4 4 4 4 3 5 4
8 12 11 8 8 8 7 7 7 7 7 6 5 4 4 7 7 7 6 6 6 6 5 6 5 6 5 5 5 5 5 5 5 5 4 4 4 3 4 4 4 3 3
8 9 12 9 7 7 7 7 6 6 6 5 4 4 7 6 6 6 5 5 5 5 5 6 5 5 5 5 5 5 6 4 4 4 4 4 4 3 3 3 3 3 3
7 7 7 7 7 7 7 6 6 6 6 6 4 5 8 6 5 5 5 4 4 4 6 6 5 4 5 4 4 4 4 4 3 3 3 4 4 4 3 3 3 3 3
7 8 7 6 6 8 7 6 6 6 5 5 5 5 5 4 4 4 4 4 4 6 8 9 7 6 7 7 7 6 3 2 1 1 2 3 4 4 3 3 4 4 4
7 7 7 6 6 6 6 6 5 6 6 6 5 5 4 4 4 4 4 4 5 7 8 9 9 9 8 7 6 5 3 2 2 2 2 2 3 3 3 4 4 4 4
7 7 7 6 6 6 6 6 5 6 5 5 5 4 4 4 4 4 3 5 6 6 8 9 9 8 8 6 4 3 2 2 3 3 4 3 3 3 4 4 4 4 4
7 7 7 6 6 6 6 5 5 5 5 4 4 4 4 4 4 4 4 4 5 6 7 8 8 8 7 6 4 2 1 2 3 4 4 4 3 3 4 4 5 4 5
Wind_Direction
177 179 177 183 187 186 188 190 189 189 192 189 186 185 186 189 189 181 183 183 190 203 204 198 208 202 195 198 161 151 163 163 195 261 276 289 255 216 194 208 221 229 234
174 172 178 178 177 181 189 191 184 186 185 182 177 173 182 185 184 187 190 187 191 201 207 203 220 213 208 203 175 172 181 179 178 220 280 304 288 231 195 194 216 225 227
165 166 174 176 172 179 179 172 169 174 172 170 166 171 178 181 186 194 188 187 194 202 200 199 215 200 211 210 188 190 206 192 169 178 230 248 286 352 41 2 39 6 219
163 165 170 175 172 170 159 150 155 166 169 167 167 169 176 184 186 189 181 181 186 189 188 187 192 189 203 204 195 206 204 178 155 155 197 247 312 344 85 70 20 1 5
162 163 170 171 166 153 149 152 155 158 168 164 154 151 152 164 183 174 169 169 167 173 177 174 165 152 162 178 187 192 176 160 146 137 146 62 33 46 68 138 150 329 17
152 161 161 148 140 142 150 150 147 150 146 136 135 142 138 180 148 149 154 151 147 155 169 175 150 123 113 117 119 122 137 159 171 158 161 152 199 160 13 96 111 70 337
147 149 147 146 148 156 158 147 146 147 137 135 142 136 129 121 127 133 135 135 126 131 141 139 132 88 97 106 91 80 67 66 121 151 148 179 181 215 115 66 77 93 291
143 144 144 145 149 149 144 146 145 135 131 125 123 122 115 99 114 129 127 122 114 105 104 116 120 101 96 111 106 86 67 47 61 92 118 117 113 127 149 159 154 111 59
128 136 142 142 140 138 140 143 141 129 117 106 106 105 104 85 96 124 126 114 104 86 74 79 106 108 95 105 108 102 84 57 62 78 83 79 71 62 65 77 68 82 50
109 116 120 131 138 139 140 134 121 115 116 110 94 86 91 86 89 116 126 119 108 95 70 58 65 81 86 98 111 113 104 87 81 76 65 59 54 49 51 59 79 94 87
90 90 88 94 108 115 114 112 112 114 112 106 96 80 73 72 77 90 107 118 121 110 91 65 53 72 76 77 85 93 103 102 88 82 68 51 43 39 36 39 49 84 95
89 87 83 81 88 99 104 104 104 110 108 103 95 81 63 57 63 79 87 95 104 103 97 81 68 68 71 71 74 76 80 82 80 75 67 52 42 33 26 35 44 54 65
95 90 86 81 78 81 94 105 103 103 108 107 102 92 73 59 58 68 78 83 86 90 90 88 80 73 68 67 68 72 74 76 78 75 67 50 32 26 33 38 36 41 41
101 94 87 85 78 70 68 74 91 98 106 107 106 101 87 68 59 64 74 78 77 82 84 76 72 69 68 64 60 60 62 71 82 81 72 48 39 44 41 38 37 31 36
99 97 91 86 86 78 69 57 68 64 103 116 114 116 111 94 70 85 95 89 90 95 95 81 71 69 66 61 59 57 57 59 64 59 60 52 47 47 38 32 40 46 46
108 102 100 98 95 96 94 77 57 68 72 78 90 99 87 96 95 87 87 89 92 96 91 87 83 79 79 78 75 65 57 57 57 60 57 53 49 47 37 28 39 47 38
117 114 110 109 107 105 104 104 95 69 63 66 75 84 90 90 86 86 86 84 83 87 87 87 87 85 81 78 76 74 62 50 54 58 56 46 42 40 40 31 26 28 18
114 116 117 114 110 106 104 103 105 106 95 70 57 70 79 80 80 80 83 83 71 68 82 88 87 84 81 77 74 71 63 52 49 49 48 42 39 40 36 25 21 22 11
114 117 115 113 111 110 108 105 103 102 102 98 84 66 67 73 69 69 75 84 89 82 79 79 80 83 82 81 79 74 69 61 53 48 41 35 32 40 32 19 15 16 23
112 117 117 115 114 113 111 109 106 106 105 103 100 96 83 81 76 66 69 82 88 87 85 83 80 83 84 83 79 75 68 59 48 43 32 24 24 35 31 19 15 9 358
117 120 118 115 114 116 116 115 115 113 112 108 102 103 109 101 97 92 89 88 95 98 94 89 86 84 84 86 85 80 75 60 48 39 30 18 16 18 10 12 7 3 352
114 114 115 117 117 119 121 124 124 122 123 119 105 92 99 96 98 99 99 98 99 105 110 106 98 96 100 104 104 92 79 61 41 31 24 14 9 7 5 2 356 348 343
114 115 113 113 116 121 119 118 121 122 122 123 119 108 103 105 109 112 112 110 110 109 113 113 112 107 108 108 106 107 108 96 27 18 21 8 3 358 352 345 341 339 339
118 120 120 119 116 117 121 125 128 129 130 130 128 126 127 129 128 127 124 128 126 125 127 128 129 132 130 125 117 110 107 95 52 28 13 348 348 343 340 339 337 335 333
117 118 118 120 121 122 122 124 126 130 133 136 139 139 136 136 138 140 144 141 140 141 142 142 143 146 149 150 148 137 102 53 25 15 6 350 338 334 332 329 330 328 330
116 118 120 122 123 125 127 128 128 129 130 132 136 140 142 144 149 150 155 152 151 153 157 161 164 166 170 174 178 175 132 19 10 10 8 358 345 332 331 323 327 329 328
Height
1523 1525 1526 1527 1529 1530 1532 1534 1536 1537 1539 1541 1543 1545 1547 1549 1551 1552 1553 1555 1556 1558 1559 1560 1561 1562 1562 1563 1564 1564 1564 1564 1564 1564 1565 1565 1565 1565 1565 1566 1566 1566 1567
1523 1524 1524 1526 1527 1529 1530 1532 1534 1536 1538 1539 1541 1543 1544 1546 1548 1549 1550 1552 1553 1554 1555 1556 1557 1558 1559 1560 1560 1560 1561 1561 1561 1561 1561 1561 1561 1562 1562 1562 1562 1563 1563
1522 1523 1524 1525 1526 1527 1529 1530 1533 1534 1535 1537 1538 1540 1541 1543 1544 1546 1547 1549 1550 1551 1552 1553 1554 1555 1556 1556 1557 1557 1557 1558 1557 1558 1557 1558 1557 1558 1558 1558 1558 1558 1558
1522 1522 1523 1524 1525 1526 1528 1529 1531 1532 1533 1535 1536 1537 1539 1540 1541 1543 1544 1545 1546 1547 1548 1549 1550 1551 1552 1553 1553 1554 1554 1554 1554 1554 1554 1554 1554 1554 1554 1554 1554 1554 1554
1521 1522 1522 1523 1524 1525 1526 1528 1529 1530 1531 1533 1534 1535 1537 1538 1539 1540 1541 1542 1543 1544 1545 1546 1546 1547 1548 1549 1550 1550 1551 1551 1550 1550 1550 1550 1550 1550 1550 1549 1550 1550 1549
1520 1521 1522 1523 1523 1524 1525 1526 1527 1528 1530 1530 1532 1533 1534 1535 1537 1537 1538 1539 1540 1541 1542 1543 1543 1544 1545 1546 1546 1547 1547 1547 1547 1547 1547 1546 1546 1546 1547 1546 1546 1546 1546
1519 1520 1521 1521 1522 1522 1523 1524 1525 1526 1527 1528 1529 1530 1531 1533 1534 1535 1536 1537 1538 1538 1539 1540 1541 1541 1542 1542 1543 1543 1543 1543 1544 1544 1543 1543 1543 1543 1544 1543 1543 1543 1543
1518 1519 1520 1520 1521 1521 1522 1522 1524 1525 1526 1527 1528 1528 1529 1531 1532 1533 1534 1534 1535 1536 1536 1537 1538 1538 1539 1539 1539 1539 1539 1540 1540 1540 1540 1540 1541 1541 1541 1541 1541 1540 1540
1517 1518 1518 1519 1519 1520 1520 1521 1522 1523 1524 1525 1526 1527 1528 1529 1530 1531 1532 1533 1533 1534 1534 1535 1535 1535 1535 1536 1537 1536 1537 1537 1538 1538 1538 1538 1538 1539 1539 1539 1538 1538 1537
1516 1516 1517 1518 1518 1519 1519 1520 1521 1522 1523 1524 1524 1525 1526 1527 1529 1530 1530 1531 1531 1532 1532 1532 1533 1533 1533 1534 1535 1535 1535 1536 1536 1536 1537 1537 1537 1537 1537 1536 1536 1536 1535
1515 1515 1516 1517 1517 1518 1518 1519 1520 1521 1522 1523 1523 1524 1525 1526 1527 1528 1529 1529 1530 1531 1531 1532 1533 1533 1533 1533 1534 1534 1534 1535 1535 1536 1536 1536 1536 1536 1536 1536 1535 1535 1535
1514 1515 1515 1516 1516 1517 1518 1518 1519 1520 1521 1521 1522 1523 1525 1526 1527 1528 1528 1529 1530 1531 1531 1532 1532 1533 1533 1532 1533 1533 1534 1535 1535 1535 1536 1536 1536 1536 1536 1536 1535 1535 1534
1513 1514 1515 1515 1516 1517 1517 1518 1519 1520 1521 1521 1522 1523 1525 1526 1527 1528 1528 1529 1530 1531 1531 1532 1532 1533 1533 1533 1533 1534 1534 1535 1535 1535 1536 1536 1537 1536 1536 1536 1535 1534 1534
1512 1513 1514 1515 1516 1517 1518 1519 1519 1520 1521 1522 1523 1524 1525 1526 1527 1528 1529 1530 1531 1531 1532 1533 1533 1534 1534 1534 1535 1536 1536 1536 1537 1537 1537 1538 1538 1537 1536 1536 1535 1534 1533
1512 1513 1514 1515 1516 1517 1518 1520 1521 1522 1523 1524 1524 1525 1526 1527 1529 1530 1531 1531 1532 1532 1533 1534 1535 1535 1536 1536 1537 1538 1538 1539 1539 1539 1539 1539 1538 1537 1537 1536 1535 1534 1533
1513 1514 1515 1516 1518 1519 1520 1521 1523 1524 1525 1526 1527 1527 1528 1530 1531 1532 1533 1533 1534 1535 1535 1536 1537 1538 1538 1539 1539 1540 1540 1541 1541 1540 1540 1540 1539 1538 1538 1537 1536 1534 1533
1514 1515 1516 1518 1519 1521 1522 1522 1524 1526 1528 1529 1530 1531 1531 1532 1533 1534 1535 1536 1537 1537 1537 1538 1539 1540 1541 1541 1541 1542 1542 1542 1542 1541 1541 1541 1540 1539 1538 1537 1536 1534 1533
1516 1517 1518 1520 1521 1523 1524 1525 1526 1528 1529 1531 1533 1534 1535 1536 1537 1537 1538 1539 1539 1540 1540 1541 1542 1542 1543 1543 1543 1543 1543 1543 1543 1542 1542 1541 1541 1540 1539 1537 1536 1535 1533
1517 1518 1520 1522 1523 1525 1527 1528 1529 1531 1532 1534 1535 1537 1538 1539 1540 1541 1542 1542 1542 1543 1543 1544 1544 1545 1545 1545 1545 1545 1544 1544 1544 1543 1542 1542 1541 1540 1539 1538 1537 1535 1534
1520 1521 1523 1525 1526 1528 1530 1531 1533 1534 1536 1537 1538 1540 1541 1542 1543 1544 1544 1545 1546 1546 1546 1546 1547 1547 1547 1547 1547 1546 1545 1545 1544 1544 1543 1542 1541 1540 1539 1538 1537 1535 1534
1523 1525 1526 1528 1530 1531 1533 1535 1536 1538 1539 1541 1542 1543 1544 1545 1546 1546 1547 1548 1548 1549 1549 1549 1549 1549 1549 1548 1548 1547 1546 1545 1544 1544 1543 1542 1541 1541 1540 1538 1537 1536 1534
1527 1528 1530 1532 1533 1535 1537 1538 1540 1541 1543 1544 1545 1546 1547 1548 1549 1549 1550 1550 1551 1551 1551 1551 1551 1550 1550 1549 1549 1548 1547 1546 1545 1544 1543 1543 1542 1541 1540 1538 1537 1535 1533
1530 1532 1534 1535 1537 1539 1540 1542 1543 1544 1546 1547 1548 1549 1550 1551 1551 1552 1552 1553 1553 1553 1553 1553 1552 1552 1551 1551 1550 1549 1547 1546 1545 1544 1544 1543 1542 1541 1539 1538 1536 1535 1533
1534 1535 1537 1539 1540 1542 1543 1544 1546 1547 1548 1549 1550 1551 1552 1553 1553 1554 1554 1554 1555 1555 1555 1554 1554 1553 1552 1551 1550 1549 1548 1546 1545 1544 1544 1543 1541 1540 1539 1538 1536 1534 1532
1538 1539 1541 1542 1543 1545 1546 1547 1548 1549 1550 1551 1552 1553 1554 1555 1555 1556 1556 1556 1556 1556 1556 1555 1555 1554 1553 1552 1550 1549 1548 1547 1545 1544 1543 1542 1541 1540 1538 1537 1535 1533 1531
1541 1542 1543 1545 1546 1547 1548 1549 1550 1551 1552 1553 1554 1554 1555 1556 1556 1556 1557 1557 1557 1556 1556 1556 1555 1554 1553 1552 1550 1549 1548 1546 1545 1544 1543 1542 1540 1539 1537 1536 1534 1532 1530